Вернуться в каталог

COSMOS 1828

АктивенВоенныеPO
NORAD 17583·PAYLOAD·🇷🇺 Russia

Запущен Mar 13, 1987 с Plesetsk Cosmodrome

Loading…

Ближайшие Пролёты (ближайшие 24 часа)

TLE

СвежийSource: Space-Track

Эпоха: Sep 14, 2026, 20:38 UTC

1 17583U 87026B   26257.85979939  .00000013  00000-0  14383-4 0  9995
2 17583  82.5627 108.2650 0018127 225.4930 164.7742 12.66270579825890

Отслеживайте COSMOS 1828 в реальном времени с AllMySat

Download on the App Store